星链-30296 (STARLINK-30296 )

导读

STARLINK-30296是美国太空探索技术公司(SpaceX)“星链”卫星互联网项目的卫星,于2023年8月22日发射升空。星链项目旨在构建全球卫星互联网星座,该卫星入轨后承担地面网络覆盖与通信服务任务,助力填补偏远地区网络空白,提升全球通信网络的覆盖广度与容量。

Basic Information
目录编号:
57671
目录名称:
STARLINK-30296
国际标识:
2023-124J
轨道中心:
EARTH
卫星名称:
星链-30296
卫星全名:
星链-30296 (STARLINK-30296 )
卫星状态:
在轨 (已飞行1109 天)
发射日期:
2023-08-22 UTC
国别 :
美国 (US)
星等 :
--
Orbit Information
数据来源 国际轨道数据 AOE轨道数据
星历时间 2026-09-02T15:22:56+0800
1天前
查看轨道信息
2026-08-30T22:00:00+0800
4天前
查看轨道信息
半长轴 6840.871km 6840.843km
偏心率 0.0001108 0.0000739
轨道倾角 53.160° 53.159°
近地点辐角 96.470° 117.008°
升交点赤经 104.621° 117.355°
平近点角 263.643° 306.464°
近地点 461.976km 462.2km
远地点 463.492km 463.212km
周期 93.848分钟 93.848分钟
每日圈数 15.343898 15.343991
Detailed Information
固有亮度:
5
最大亮度:
0.3
卫星平台:
Starlink v2.0 mini
覆盖范围:
全球
运营商:
太空探索技术公司
运营商所在国:
美国
制造商(研发单位):
太空探索技术公司
制造商所在国:
美国
使用方式:
暂无
Satellite Introduction
星链(Starlink)计划是由太空探索技术公司(SpaceX)提出的一个巨型低轨卫星互联网星座项目,计划在2019年至2024年间在太空搭建由约1.2万颗卫星组成的“星链”网络,其中1584颗将部署在地球上空550千米处的近地轨道,并从2020年开始工作。该卫星仍在工作。
2D Orbit Map
3D Orbit Map
Orbit Altitude Analysis Chart
Orbit Inclination Analysis Chart
Orbit Comprehensive Analysis Chart
View Comprehensive Chart
Conjunction Data List
Event ID Objects TCA Miss Dist (km) Collision Risk Probability Collision Risk Index (CRI) Action
CDM_260903-193705-767106-195423
2026-09-03T
19:37:34+0000
0.833 km
远距离
3.017885E-5 中风险 0.65
CDM_260904-054705-767106-195422
2026-09-04T
05:47:12+0000
1.412 km
极远距离
4.990768E-6 低风险 0.49
CDM_260905-105605-273705-767121
2026-09-05T
10:56:30+0000
2.124 km
极远距离
1.735414E-6 低风险 0.4
CDM_260903-211105-767106-195421
2026-09-03T
21:11:21+0000
2.396 km
极远距离
1.235509E-6 低风险 0.37
CDM_260904-041305-767106-195423
2026-09-04T
04:13:25+0000
2.442 km
极远距离
1.193293E-6 低风险 0.37